Simultaneous Nadir Overpasses (SNOs) Predictions

Prediction of SNOs between AQUA and NOAA-19 Satellite Orbit:

Table of predicted SNOs for the next 14.0 days since TLE Epoch: 10/29/2011
Index Date Time (AQUA) AQUA Lat,Lon NOAA-19 Lat,Lon Distance(km) Time Diff (sec)
1 10/30/2011 00:18:57 -46.83,-152.16 -46.84,-152.14 1.73 14
2 11/01/2011 05:02:19 -50.67, 138.29 -50.67, 138.30 0.48 14
3 11/03/2011 09:00:34 39.15,-104.67 39.14,-104.68 0.90 48
4 11/05/2011 13:44:03 43.05,-174.54 43.05,-174.56 1.29 28
5 11/07/2011 18:27:40 46.69, 115.61 46.69, 115.61 0.12 12
6 11/09/2011 23:11:50 48.59, 45.18 48.59, 45.17 0.49 1




NCC Satellite Simultaneous Nadir Overpasses (SNOs) Prediction Service
